905  
ASUS45 KTFX 250010  
RWRMT  
MONTANA REGIONAL WEATHER ROUNDUP  
NATIONAL WEATHER SERVICE GREAT FALLS MT  
600 PM MDT THU MAY 24 2018  
 
NOTE: "FAIR" INDICATES FEW OR NO CLOUDS BELOW 12000 FEET WITH NO  
SIGNIFICANT WEATHER AND/OR S TO VISIBILITY
.  
 
MTZ001>007-043-250100-  
WEST OF THE DIVIDE  
 
CITY SKY/WX TMP DP RH WIND PRES REMARKS
 
KALISPELL FAIR 72 55 55 S15 29.91F  
MISSOULA PTSUNNY 77 48 35 NW8 29.94F  
BUTTE CLOUDY 66 43 43 W10 30.07R  
MULLAN PASS FAIR 59 47 64 VRB6 30.09F  
ANACONDA N/A 68 45 42 SW9 30.04R  
DEER LODGE N/A 66 48 52 NW10 30.04S  
HAMILTON N/A 73 46 38 MISG 30.01F  
RONAN N/A 72 52 49 VRB3 29.95F  

 
 
MTZ008-052>055-250100-  
SOUTHWEST MONTANA  
 
CITY SKY/WX TMP DP RH WIND PRES REMARKS
 
BOZEMAN FAIR 75 45 34 W13 29.99S  
DILLON PTSUNNY 67 45 45 W8 30.05R  
ENNIS PTSUNNY 64 46 52 SE15G21 30.10F  
W YELLOWSTONE FAIR 52 48 87 SE6 30.18R  

 
 
MTZ009-010-012-014-046-048-049-054-250100-  
EAST SLOPES AND CENTRAL MONTANA  
 
CITY SKY/WX TMP DP RH WIND PRES REMARKS
 
CUT BANK FAIR 72 46 39 W29G37 29.86R  
GREAT FALLS FAIR 78 44 29 W20 29.88S  
MALMSTROM AFB FAIR 75 43 32 W17 29.89R  
HELENA FAIR 75 45 34 NW18 29.94S  
CHOTEAU N/A 72 45 37 W24G30 29.92R  

 
 
MTZ011-013-016-021-045-047-050-051-250100-  
NORTH CENTRAL MONTANA  
 
CITY SKY/WX TMP DP RH WIND PRES REMARKS
 
HAVRE FAIR 82 47 29 SW21G28 29.74F  
LEWISTOWN FAIR 73 46 38 NW18G25 29.91R  
N BAR RANCH PTSUNNY 72 46 40 NW18G24 29.94S  

 
 
MTZ017>020-022>027-061-062-250100-  
NORTHEAST MONTANA  
 
CITY SKY/WX TMP DP RH WIND PRES REMARKS
 
GLASGOW FAIR 80 52 37 W14 29.74S  
GLENDIVE FAIR 77 58 51 W14 29.81S  
JORDAN N/A 74 58 57 W7 29.80R  
MALTA SUNNY 81 50 34 W13 29.72F  
SIDNEY FAIR 78 57 48 W12 29.75F  
WOLF POINT FAIR 81 56 42 W14 29.74S  
PLENTYWOOD N/A 73 57 56 MISG 29.73S  
POPLAR N/A 79 54 41 MISG 29.75S  
SCOBEY N/A 74 50 42 W14 29.75  

 
 
MTZ028>42-056>058-250100-  
SOUTHCENTRAL AND SOUTHEAST MONTANA  
 
CITY SKY/WX TMP DP RH WIND PRES REMARKS
 
BAKER FAIR 76 54 46 W18 29.86S  
BILLINGS FAIR 78 49 35 W17G24 29.91R  
LIVINGSTON FAIR 72 48 42 SW23G32 29.97F  
MILES CITY FAIR 79 57 46 W13 29.82F  
BIG TIMBER SUNNY 73 46 38 W20G30 29.97S  
EKALAKA N/A 74 50 42 W9 29.89F  
FORSYTH N/A 81 48 32 MISG 29.82  
LAUREL N/A 77 52 41 SW8 29.92S  

 
 
REGIONAL REPORTS...DAKOTAS  
 
CITY SKY/WX TMP DP RH WIND PRES REMARKS
 
WILLISTON FAIR 78 55 44 W14 29.74F  
MINOT FAIR 81 52 36 SW20G26 29.69S  
DICKINSON FAIR 77 52 41 W20G28 29.79S  
BEACH FAIR 75 52 43 W17 29.85F  
CROSBY FAIR 70 59 68 NW6 29.72F  
TIOGA FAIR 72 61 68 W18 29.76S  
WATFORD CITY FAIR 77 57 50 W15 29.75S  
BISMARCK FAIR 83 54 36 W20G25 29.75S  
GRAND FORKS FAIR 90 53 28 S18G28 29.64F  
FARGO LGT RAIN 87 59 38 S16G29 29.71S  
BUFFALO SD N/A 80 50 34 W18 29.82R  
RAPID CITY FAIR 76 55 48 NE6 29.92R  

 
 
REGIONAL REPORTS...WYOMING/IDAHO/WASHINGTON  
 
CITY SKY/WX TMP DP RH WIND PRES REMARKS
 
GILLETTE FAIR 78 48 34 N15 29.96R  
SHERIDAN FAIR 78 52 40 VRB6 29.94S  
BUFFALO WY FAIR 73 47 39 N6 30.01R  
CODY FAIR 70 43 37 W8G17 30.04S  
IDAHO FALLS PTSUNNY 72 48 42 S20G28 30.07F  
SALMON PTSUNNY 68 55 63 SW6 30.06S  
BOISE FAIR 84 48 28 NW9 29.93F  
SPOKANE FAIR 79 52 38 SW14 29.93F  

 
 
REGIONAL REPORTS...ALBERTA  
 
CITY SKY/WX TMP DP RH WIND PRES REMARKS
 
CALGARY MOSUNNY 81 37 21 N18G25 29.74S  
EDMONTON MOSUNNY 70 48 46 E16 29.70R  
FORT MCMURRAY SUNNY 77 50 38 SW15G21 29.63R  
HIGH LEVEL PTSUNNY 79 46 31 CALM 29.60R  
LLOYDMINSTER PTSUNNY 66 57 72 N8 29.67F  
MEDICINE HAT MOSUNNY 81 41 24 NW9 29.66S  
PEACE RIVER PTSUNNY 77 50 38 N25 29.66R  
PINCHER CREEK N/A 75 43 31 MISG 29.85S  
WATERTON GATE N/A 72 43 35 SW15G30 N/A  

 
 
REGIONAL REPORTS...SASKATCHEWAN  
 
CITY SKY/WX TMP DP RH WIND PRES REMARKS
 
CORONACH N/A 73 52 46 W18 N/A  
ESTEVAN PTSUNNY 72 59 64 W14 29.69F  
PRINCE ALBERT CLOUDY 70 57 64 CALM 29.66F  
REGINA PTSUNNY 70 61 73 W5 29.67S  
ROCKGLEN N/A 66 46 48 W18G26 N/A  
SASKATOON PTSUNNY 79 52 38 W6 29.64F  
SWIFT CURRENT SUNNY 75 54 46 SW9 29.69F  

 
 
 
CLICK HERE TO GO TO PREVIOUS BULLETINS.

The Nexlab MT Page Main Text Page